TimeEST,TemperatureF,Dew PointF,Humidity,Sea Level PressureIn,VisibilityMPH,Wind Direction,Wind SpeedMPH,Gust SpeedMPH,PrecipitationIn,Events,Conditions,WindDirDegrees,DateUTC
12:14 AM,8.6,-0.4,67,30.26,10.0,West,12.7,16.1,N/A,,Overcast,270,2013-01-23 05:14:00
12:35 AM,8.6,-0.4,67,30.26,10.0,WSW,8.1,-,N/A,,Overcast,250,2013-01-23 05:35:00
12:54 AM,8.6,-0.4,67,30.26,10.0,West,10.4,-,N/A,,Overcast,270,2013-01-23 05:54:00
1:14 AM,8.6,-0.4,67,30.26,10.0,West,9.2,-,N/A,,Overcast,260,2013-01-23 06:14:00
1:34 AM,8.6,-0.4,67,30.26,10.0,West,10.4,-,N/A,,Overcast,270,2013-01-23 06:34:00
1:54 AM,8.6,-0.4,67,30.26,10.0,West,5.8,-,N/A,,Overcast,270,2013-01-23 06:54:00
2:15 AM,8.6,-0.4,67,30.26,10.0,West,8.1,-,N/A,,Overcast,270,2013-01-23 07:15:00
2:34 AM,8.6,-0.4,67,30.26,10.0,West,8.1,-,N/A,,Overcast,270,2013-01-23 07:34:00
2:54 AM,8.6,-0.4,67,30.27,10.0,West,6.9,-,N/A,,Overcast,280,2013-01-23 07:54:00
3:15 AM,8.6,-0.4,67,30.27,10.0,West,5.8,-,N/A,,Overcast,260,2013-01-23 08:15:00
3:34 AM,8.6,-0.4,67,30.26,10.0,West,5.8,-,N/A,,Overcast,270,2013-01-23 08:34:00
3:54 AM,8.6,-0.4,67,30.26,10.0,West,4.6,-,N/A,,Overcast,260,2013-01-23 08:54:00
4:15 AM,8.6,-0.4,67,30.26,10.0,West,8.1,-,N/A,,Overcast,260,2013-01-23 09:15:00
4:34 AM,6.8,-0.4,72,30.26,10.0,West,5.8,-,N/A,,Overcast,270,2013-01-23 09:34:00
4:54 AM,6.8,-0.4,72,30.25,10.0,West,5.8,-,N/A,,Overcast,260,2013-01-23 09:54:00
5:14 AM,6.8,-0.4,72,30.26,10.0,West,5.8,-,N/A,,Overcast,260,2013-01-23 10:14:00
5:34 AM,6.8,-0.4,72,30.25,10.0,West,6.9,-,N/A,,Overcast,280,2013-01-23 10:34:00
5:55 AM,6.8,-0.4,72,30.25,10.0,Calm,Calm,-,N/A,,Mostly Cloudy,0,2013-01-23 10:55:00
6:14 AM,6.8,-0.4,72,30.26,10.0,West,5.8,-,N/A,,Clear,270,2013-01-23 11:14:00
6:34 AM,6.8,-0.4,72,30.26,10.0,West,4.6,-,N/A,,Clear,270,2013-01-23 11:34:00
6:54 AM,6.8,-0.4,72,30.26,10.0,WSW,5.8,-,N/A,,Clear,250,2013-01-23 11:54:00
7:14 AM,6.8,-0.4,72,30.25,10.0,WSW,4.6,-,N/A,,Clear,240,2013-01-23 12:14:00
7:34 AM,6.8,-0.4,72,30.25,10.0,WSW,3.5,-,N/A,,Clear,240,2013-01-23 12:34:00
7:54 AM,6.8,-0.4,72,30.26,10.0,WSW,3.5,-,N/A,,Clear,240,2013-01-23 12:54:00
8:14 AM,6.8,-0.4,72,30.25,10.0,SW,4.6,-,N/A,,Scattered Clouds,230,2013-01-23 13:14:00
8:34 AM,6.8,-0.4,72,30.25,10.0,SW,4.6,-,N/A,,Mostly Cloudy,230,2013-01-23 13:34:00
8:54 AM,8.6,-0.4,67,30.25,10.0,SW,6.9,-,N/A,,Overcast,230,2013-01-23 13:54:00
9:14 AM,8.6,-0.4,67,30.25,10.0,WSW,4.6,-,N/A,,Overcast,240,2013-01-23 14:14:00
9:34 AM,8.6,-0.4,67,30.25,10.0,WSW,8.1,-,N/A,,Overcast,240,2013-01-23 14:34:00
9:54 AM,8.6,-2.2,62,30.25,10.0,WSW,4.6,-,N/A,,Overcast,250,2013-01-23 14:54:00
10:15 AM,10.4,-2.2,57,30.24,10.0,SSW,4.6,-,N/A,,Overcast,210,2013-01-23 15:15:00
10:34 AM,10.4,-2.2,57,30.24,10.0,SW,5.8,-,N/A,,Overcast,230,2013-01-23 15:34:00
10:54 AM,10.4,-0.4,62,30.24,10.0,SSW,6.9,-,N/A,,Overcast,210,2013-01-23 15:54:00
11:15 AM,12.2,1.4,62,30.24,10.0,WSW,9.2,-,N/A,,Overcast,240,2013-01-23 16:15:00
11:34 AM,12.2,3.2,67,30.23,10.0,WSW,9.2,-,N/A,,Overcast,250,2013-01-23 16:34:00
11:54 AM,12.2,5.0,73,30.22,10.0,WSW,6.9,-,N/A,,Overcast,240,2013-01-23 16:54:00
12:15 PM,14.0,5.0,67,30.21,7.0,WSW,8.1,-,N/A,,Overcast,240,2013-01-23 17:15:00
12:34 PM,14.0,6.8,73,30.19,7.0,SW,8.1,-,N/A,,Overcast,230,2013-01-23 17:34:00
12:54 PM,15.8,6.8,68,30.17,7.0,SW,9.2,-,N/A,,Overcast,220,2013-01-23 17:54:00
1:14 PM,15.8,6.8,68,30.16,2.5,SW,10.4,-,N/A,Snow,Light Snow,220,2013-01-23 18:14:00
1:34 PM,15.8,6.8,68,30.15,2.0,SSW,9.2,-,N/A,Snow,Light Snow,210,2013-01-23 18:34:00
1:54 PM,15.8,8.6,73,30.14,4.0,WSW,8.1,-,N/A,Snow,Light Snow,240,2013-01-23 18:54:00
2:14 PM,17.6,8.6,68,30.13,5.0,SW,6.9,-,N/A,Snow,Light Snow,220,2013-01-23 19:14:00
2:34 PM,17.6,8.6,68,30.13,7.0,SW,10.4,-,N/A,Snow,Light Snow,230,2013-01-23 19:34:00
2:55 PM,17.6,6.8,63,30.12,7.0,SW,9.2,-,N/A,,Overcast,220,2013-01-23 19:55:00
3:14 PM,17.6,6.8,63,30.12,10.0,SW,11.5,19.6,N/A,,Overcast,230,2013-01-23 20:14:00
3:34 PM,17.6,6.8,63,30.11,10.0,WSW,8.1,-,N/A,,Overcast,240,2013-01-23 20:34:00
3:55 PM,17.6,6.8,63,30.11,10.0,SW,11.5,17.3,N/A,,Overcast,230,2013-01-23 20:55:00
4:14 PM,17.6,5.0,58,30.09,10.0,SW,10.4,16.1,N/A,,Mostly Cloudy,230,2013-01-23 21:14:00
4:34 PM,17.6,3.2,53,30.09,10.0,WSW,9.2,-,N/A,,Scattered Clouds,240,2013-01-23 21:34:00
4:55 PM,17.6,3.2,53,30.09,10.0,WSW,9.2,-,N/A,,Scattered Clouds,240,2013-01-23 21:55:00
5:14 PM,17.6,3.2,53,30.09,10.0,WSW,6.9,-,N/A,,Mostly Cloudy,240,2013-01-23 22:14:00
5:34 PM,15.8,3.2,58,30.08,10.0,WSW,4.6,-,N/A,,Mostly Cloudy,240,2013-01-23 22:34:00
5:54 PM,15.8,1.4,53,30.08,10.0,SW,4.6,-,N/A,,Scattered Clouds,230,2013-01-23 22:54:00
6:14 PM,15.8,1.4,53,30.09,10.0,WSW,4.6,-,N/A,,Mostly Cloudy,250,2013-01-23 23:14:00
6:34 PM,15.8,3.2,58,30.09,10.0,SW,3.5,-,N/A,,Overcast,230,2013-01-23 23:34:00
6:54 PM,15.8,3.2,58,30.09,10.0,SW,4.6,-,N/A,,Mostly Cloudy,220,2013-01-23 23:54:00
7:14 PM,15.8,5.0,62,30.09,10.0,SW,4.6,-,N/A,,Overcast,230,2013-01-24 00:14:00
7:34 PM,15.8,5.0,62,30.08,10.0,SW,4.6,-,N/A,,Overcast,220,2013-01-24 00:34:00
7:54 PM,15.8,6.8,68,30.08,10.0,SW,3.5,-,N/A,,Overcast,220,2013-01-24 00:54:00
8:14 PM,15.8,6.8,68,30.08,4.0,SW,5.8,-,N/A,Snow,Light Snow,220,2013-01-24 01:14:00
8:34 PM,15.8,8.6,73,30.07,4.0,SW,3.5,-,N/A,Snow,Light Snow,230,2013-01-24 01:34:00
8:54 PM,15.8,8.6,73,30.07,4.0,SW,3.5,-,N/A,Snow,Light Snow,230,2013-01-24 01:54:00
9:14 PM,15.8,10.4,79,30.07,3.0,SW,3.5,-,N/A,Snow,Light Snow,220,2013-01-24 02:14:00
9:34 PM,15.8,10.4,79,30.07,5.0,WSW,4.6,-,N/A,Snow,Light Snow,240,2013-01-24 02:34:00
9:54 PM,15.8,10.4,79,30.08,3.0,Calm,Calm,-,N/A,Snow,Light Snow,0,2013-01-24 02:54:00
10:14 PM,15.8,10.4,79,30.07,2.5,SW,3.5,-,N/A,Snow,Light Snow,230,2013-01-24 03:14:00
10:34 PM,15.8,10.4,79,30.07,3.0,WSW,3.5,-,N/A,Snow,Light Snow,240,2013-01-24 03:34:00
10:54 PM,15.8,10.4,79,30.06,4.0,Calm,Calm,-,N/A,Snow,Light Snow,0,2013-01-24 03:54:00
11:15 PM,15.8,10.4,79,30.07,2.5,West,4.6,-,N/A,Snow,Light Snow,270,2013-01-24 04:15:00
11:34 PM,15.8,12.2,86,30.07,2.5,West,3.5,-,N/A,Snow,Light Snow,280,2013-01-24 04:34:00
11:54 PM,15.8,12.2,86,30.08,3.0,NW,5.8,-,N/A,Snow,Light Snow,310,2013-01-24 04:54:00